Skip Page Navigation
NASA JPL Caltech
NASA Logo - Jet Propulsion Laboratory + View the NASA Portal
+ Near-Earth Object (NEO) Program
Search JPL
JPL Home Earth Solar System Stars & Galaxies Technology
JPL Solar System Dynamics
BODIES ORBITS EPHEMERIDES TOOLS PHYSICAL DATA DISCOVERY FAQ SITE MAP
JPL Small-Body Database Browser
Search: [ help ]  
35134 (1992 RE)
Classification: Inner Main-belt Asteroid          SPK-ID: 2035134
Ephemeris | Orbit Diagram | Orbital Elements | Physical Parameters | Discovery Circumstances ]

[ show orbit diagram ]
Orbital Elements at Epoch 2457000.5 (2014-Dec-09.0) TDB
Reference: JPL 4 (heliocentric ecliptic J2000)
 Element Value Uncertainty (1-sigma)   Units 
e .1036673369380327 1.0397e-07  
a 1.960951654947332 1.8272e-08 AU
q 1.757665019014714 2.0677e-07 AU
i 24.34639222410067 9.3107e-06 deg
node 111.3276849848395 2.5824e-05 deg
peri 270.6019249705132 6.2254e-05 deg
M 24.767224773926 6.7333e-05 deg
tp 2456931.496105607638
(2014-Sep-30.99610561)
0.00018712 JED
period 1002.994974527887
2.75
1.4019e-05
3.838e-08
d
yr
n .3589250286816771 5.0166e-09 deg/d
Q 2.16423829087995 2.0166e-08 AU
  Orbit Determination Parameters
   # obs. used (total)      442  
   data-arc span      23073 days (63.17 yr)  
   first obs. used      1950-04-19  
   last obs. used      2013-06-20  
   planetary ephem.      DE431  
   SB-pert. ephem.      SB431-BIG16  
   condition code      0  
   fit RMS      .53367  
   data source      ORB  
   producer      Otto Matic  
   solution date      2014-Jun-10 03:50:13  

Additional Information
 Earth MOID = .880356 AU 
 T_jup = 3.766 
[ show covariance matrix ]

Ephemeris | Orbit Diagram | Orbital Elements | Physical Parameters | Discovery Circumstances ]

Physical Parameter Table
Parameter Symbol Value Units Sigma Reference Notes
absolute magnitude H 14.7 mag n/a MPO263639  

35134 (1992 RE)          Discovered 1992-Sep-04 by McNaught, R. H. at Siding Spring (413)
Reference: 20020227/Numbers.arcLast Updated: 2004-04-19

Alternate Designations
 1992 RE = 1999 CO15 = 2000 MK1 
Ephemeris | Orbit Diagram | Orbital Elements | Physical Parameters | Discovery Circumstances ]
ABOUT SSD CREDITS/AWARDS PRIVACY/COPYRIGHT GLOSSARY LINKS
FirstGov 2014-Oct-25 21:11 UT
(server date/time)  
NASA Home Page
Site Manager:   Donald K. Yeomans
Webmaster  Alan B. Chamberlin